Home > Weather > Tacoma > Past weeks

Flag for USA Past Weather in Tacoma, Washington, USA — Yesterday and Last 2 Weeks

Now
58 °F

Partly sunny.


Feels Like: 57 °F
Forecast: 52 / 64 °F
Wind: 7 mph from Southwest

Location: Tacoma Narrows Airport

Current Time: May 25, 2016 at 11:59:29 AM

Latest Report: May 25, 2016 at 10:53 AM


Visibility: 10 mi

Pressure: 30.15 "Hg

Humidity: 72%

Dew Point: 49 °F

Location of TacomaLocation

Past Weather in Tacoma — Graph

°F

Tacoma Temperature Yesterday

Maximum temperature yesterday: 65 °F (at 6:53 PM)
Minimum temperature yesterday: 52 °F (at 7:00 AM)
Average temperature yesterday: 57 °F

High & Low Weather Summary for the Past Weeks

 TemperatureHumidityPressure
High82 °F (May 13, 2:53 PM)97% (May 21, 1:53 PM)30.29 "Hg (May 21, 1:53 PM)
Low46 °F (May 19, 6:53 AM)17% (May 11, 3:53 PM)29.74 "Hg (May 21, 3:53 AM)
Average57 °F69%30.00 "Hg
* Reported May 10 9:53 AM — May 25 9:53 AM, Tacoma, Weather by CustomWeather, © 2016

Note: Actual official high and low records may vary slightly from our data, if they occured in-between our weather recording intervals... More about our weather records

Advertising

Tacoma Weather History for the Previous 24 Hours

Scroll right to see more
 ConditionsComfort  
Time TempWeatherWind HumidityBarometerVisibility
9:53 AM
Wed, May 25
56 °FMostly cloudy.9 mph77%30.15 "Hg10 mi
8:53 AM54 °FMore clouds than sun.8 mph83%30.14 "Hg10 mi
7:53 AM53 °FOvercast.7 mph86%30.12 "Hg10 mi
7:04 AM52 °FMore clouds than sun.5 mph89%30.11 "Hg10 mi
6:53 AM52 °FMostly cloudy.7 mph89%30.11 "Hg10 mi
5:53 AM52 °FMostly cloudy.5 mph89%30.10 "Hg10 mi
5:01 AM52 °FMostly cloudy.No wind89%30.09 "Hg10 mi
3:53 AM53 °FOvercast.3 mph86%30.07 "Hg10 mi
2:53 AM53 °FOvercast.5 mph86%30.07 "Hg10 mi
1:53 AM54 °FOvercast.3 mph83%30.05 "Hg10 mi
12:53 AM55 °FOvercast.3 mph77%30.04 "Hg10 mi
11:53 PM
Tue, May 24
55 °FOvercast.3 mph77%30.05 "Hg10 mi
10:53 PM57 °FOvercast.5 mph72%30.04 "Hg10 mi
9:53 PM58 °FOvercast.5 mph72%30.03 "Hg10 mi
8:53 PM59 °FOvercast.5 mph69%30.01 "Hg10 mi
7:53 PM62 °FBroken clouds.7 mph62%30.00 "Hg10 mi
6:53 PM65 °FBroken clouds.6 mph56%29.99 "Hg10 mi
5:53 PM64 °FBroken clouds.3 mph56%29.99 "Hg10 mi
4:53 PM63 °FBroken clouds.5 mph56%30.00 "Hg10 mi
3:53 PM63 °FMore clouds than sun.3 mph58%29.99 "Hg10 mi
2:53 PM61 °FMore clouds than sun.5 mph65%30.00 "Hg10 mi
1:53 PM60 °FMore clouds than sun.No wind67%30.01 "Hg10 mi
1:00 PM59 °FOvercast.3 mph72%30.01 "Hg10 mi
11:53 AM56 °FBroken clouds.5 mph81%30.00 "Hg10 mi
Weather by CustomWeather, © 2016

See weather overviewHow to use our weather pages